Location: Newark
(44.3681°N, 100.3364°W)
Time: 18:11:42
(UTC+00:00)

S-56A Canister/Altair - Pass Details

Date: 04 March 2020
Orbit: 634 x 2498 km, 38.9° (Epoch: 02 April)

Event Time Altitude Azimuth Distance (km) Brightness Sun altitude
Rises 21:28:24 0° 284° (WNW) 6,072 12.5 28.7°
Reaches altitude 10° 21:33:23 10° 272° (W) 5,147 12.5 28.1°
Maximum altitude 21:44:02 24° 227° (SW) 4,016 14.9 26.7°
Drops below altitude 10° 21:53:56 10° 180° (S) 4,718 12.2 25.3°
Sets 21:58:18 0° 168° (SSE) 5,473 12.2 24.7°
